NI0Z Weather Reports


Display with metric or nautical units.
time (UTC)temp
F
wind
direction
speed
MPH
gust
MPH
rain 1hr
in
rain 24hr
in
rain mn
in
humidity
%
barometer
mb
20260904024104 87 328 1.0 1.0 0.00 0.00 0.00 56
20260904023600 87 323 1.0 1.0 0.00 0.00 0.00 56
20260904023056 87 337 1.0 1.0 0.00 0.00 0.00 56
20260904022556 87 324 1.0 1.0 0.00 0.00 0.00 56
20260904022053 87 331 1.0 1.0 0.00 0.00 0.00 56
20260904021548 87 323 0.0 1.0 0.00 0.00 0.00 57
20260904021043 87 328 0.0 0.0 0.00 0.00 0.00 56
20260904020538 87 331 1.0 2.0 0.00 0.00 0.00 55
20260904020033 87 331 0.0 1.0 0.00 0.00 0.00 56
20260904015527 87 332 1.0 1.0 0.00 0.00 0.00 56
20260904015026 87 329 1.0 1.0 0.00 0.00 0.00 55
20260904014520 87 329 0.0 0.0 0.00 0.00 0.00 56
20260904014016 88 324 0.0 1.0 0.00 0.00 0.00 55
20260904013512 88 322 0.0 0.0 0.00 0.00 0.00 55
20260904013009 88 324 0.0 0.0 0.00 0.00 0.00 54
20260904012509 88 324 0.0 0.0 0.00 0.00 0.00 54
20260904012002 88 323 0.0 1.0 0.00 0.00 0.00 54
20260904011457 89 322 1.0 2.0 0.00 0.00 0.00 53
20260904010952 89 325 0.0 1.0 0.00 0.00 0.00 53
20260904010449 89 324 0.0 1.0 0.00 0.00 0.00 53
20260904005949 89 323 0.0 1.0 0.00 0.00 0.00 52
20260904005445 90 323 0.0 1.0 0.00 0.00 0.00 51
20260904004939 91 325 0.0 1.0 0.00 0.00 0.00 50
20260904004436 91 322 1.0 1.0 0.00 0.00 0.00 50
20260904003935 91 324 1.0 1.0 0.00 0.00 0.00 49
20260904003431 92 322 0.0 0.0 0.00 0.00 0.00 49
20260904002926 92 326 1.0 1.0 0.00 0.00 0.00 48
20260904002423 92 328 1.0 2.0 0.00 0.00 0.00 47
20260904001921 93 329 1.0 2.0 0.00 0.00 0.00 48
20260904001417 93 325 2.0 2.0 0.00 0.00 0.00 47
20260904000912 93 350 0.0 2.0 0.00 0.00 0.00 47
20260904000412 93 339 1.0 5.0 0.00 0.00 0.00 47
20260903235906 93 337 1.0 3.0 0.00 0.00 0.00 47
20260903235403 93 345 3.0 3.0 0.00 0.00 0.00 47
20260903234902 94 332 1.0 2.0 0.00 0.00 0.00 46
20260903234358 94 332 2.0 3.0 0.00 0.00 0.00 46
20260903233854 94 330 2.0 2.0 0.00 0.00 0.00 46
20260903233350 94 316 1.0 2.0 0.00 0.00 0.00 45
20260903232849 94 334 2.0 3.0 0.00 0.00 0.00 45
20260903232345 94 313 1.0 1.0 0.00 0.00 0.00 45
20260903231844 94 324 3.0 3.0 0.00 0.00 0.00 44
20260903231339 94 338 1.0 5.0 0.00 0.00 0.00 44
20260903230835 95 340 1.0 2.0 0.00 0.00 0.00 44
20260903230330 95 327 1.0 2.0 0.00 0.00 0.00 44
20260903225826 95 324 1.0 3.0 0.00 0.00 0.00 44
20260903225322 95 341 1.0 2.0 0.00 0.00 0.00 44
20260903224818 95 353 2.0 2.0 0.00 0.00 0.00 44
20260903224314 95 328 1.0 3.0 0.00 0.00 0.00 44
20260903223810 95 325 1.0 5.0 0.00 0.00 0.00 44
20260903223309 95 344 3.0 3.0 0.00 0.00 0.00 43
20260903222803 95 336 2.0 5.0 0.00 0.00 0.00 43
20260903222305 95 321 1.0 3.0 0.00 0.00 0.00 44
20260903221757 95 333 2.0 2.0 0.00 0.00 0.00 44
20260903221256 95 349 5.0 7.0 0.00 0.00 0.00 43
20260903220755 95 331 3.0 5.0 0.00 0.00 0.00 43
20260903220249 95 325 1.0 5.0 0.00 0.00 0.00 44
20260903215747 95 328 3.0 6.0 0.00 0.00 0.00 43
20260903215244 95 328 2.0 3.0 0.00 0.00 0.00 43
20260903214741 95 336 2.0 3.0 0.00 0.00 0.00 44
20260903214238 95 318 3.0 6.0 0.00 0.00 0.00 44
20260903213732 95 326 2.0 3.0 0.00 0.00 0.00 43
20260903213228 95 306 3.0 5.0 0.00 0.00 0.00 44
20260903212724 95 4 4.0 5.0 0.00 0.00 0.00 44
20260903212221 95 321 2.0 2.0 0.00 0.00 0.00 45
20260903211719 95 340 2.0 5.0 0.00 0.00 0.00 45
20260903211216 95 320 1.0 1.0 0.00 0.00 0.00 46
20260903210712 95 324 1.0 2.0 0.00 0.00 0.00 44
20260903210207 95 325 0.0 1.0 0.00 0.00 0.00 45
20260903205707 95 324 1.0 3.0 0.00 0.00 0.00 45
20260903205206 95 337 2.0 3.0 0.00 0.00 0.00 46
20260903204702 95 2 1.0 7.0 0.00 0.00 0.00 45
20260903204158 95 324 2.0 3.0 0.00 0.00 0.00 45
20260903203653 95 352 3.0 7.0 0.00 0.00 0.00 46
20260903203148 95 348 1.0 3.0 0.00 0.00 0.00 45
20260903202643 95 317 2.0 3.0 0.00 0.00 0.00 46
20260903202138 95 351 3.0 5.0 0.00 0.00 0.00 46
20260903201632 94 3 3.0 7.0 0.00 0.00 0.00 46
20260903201132 94 320 2.0 7.0 0.00 0.00 0.00 46
20260903200628 95 328 2.0 5.0 0.00 0.00 0.00 46
20260903200122 94 329 1.0 2.0 0.00 0.00 0.00 47
20260903195618 94 337 3.0 5.0 0.00 0.00 0.00 46
20260903195113 94 323 1.0 3.0 0.00 0.00 0.00 48
20260903194608 94 325 1.0 7.0 0.00 0.00 0.00 47
20260903194103 94 350 2.0 2.0 0.00 0.00 0.00 48
20260903193559 94 4 4.0 7.0 0.00 0.00 0.00 47
20260903193055 94 336 1.0 3.0 0.00 0.00 0.00 46
20260903192551 94 323 1.0 5.0 0.00 0.00 0.00 48
20260903192046 94 330 3.0 3.0 0.00 0.00 0.00 48
20260903191543 94 298 2.0 2.0 0.00 0.00 0.00 50
20260903191043 94 348 2.0 5.0 0.00 0.00 0.00 48
20260903190542 94 329 3.0 5.0 0.00 0.00 0.00 49
20260903190042 93 342 2.0 8.0 0.00 0.00 0.00 49
20260903185537 93 340 3.0 6.0 0.00 0.00 0.00 50
20260903185032 93 311 3.0 7.0 0.00 0.00 0.00 49
20260903184529 93 315 1.0 6.0 0.00 0.00 0.00 51
20260903184023 93 340 2.0 3.0 0.00 0.00 0.00 50
20260903183523 93 359 5.0 7.0 0.00 0.00 0.00 50
20260903183018 93 324 3.0 6.0 0.00 0.00 0.00 51
20260903182516 93 329 2.0 6.0 0.00 0.00 0.00 51
20260903182013 92 312 1.0 3.0 0.00 0.00 0.00 53
20260903181506 92 345 2.0 5.0 0.00 0.00 0.00 51
20260903181005 92 322 0.0 5.0 0.00 0.00 0.00 53
20260903180501 92 300 2.0 3.0 0.00 0.00 0.00 54
20260903180000 92 330 1.0 5.0 0.00 0.00 0.00 53
20260903175454 91 333 3.0 5.0 0.00 0.00 0.00 54
20260903174953 91 4 1.0 5.0 0.00 0.00 0.00 54
20260903174449 91 351 3.0 6.0 0.00 0.00 0.00 54
20260903173948 91 331 1.0 3.0 0.00 0.00 0.00 55
20260903173444 91 325 2.0 5.0 0.00 0.00 0.00 53
20260903172939 90 327 0.0 3.0 0.00 0.00 0.00 57
20260903172434 91 348 3.0 6.0 0.00 0.00 0.00 55
20260903171930 91 345 2.0 3.0 0.00 0.00 0.00 54
20260903171425 91 325 3.0 5.0 0.00 0.00 0.00 53
20260903170925 91 358 2.0 3.0 0.00 0.00 0.00 53
20260903170419 90 316 1.0 2.0 0.00 0.00 0.00 55
20260903165918 90 330 1.0 5.0 0.00 0.00 0.00 54
20260903165413 90 296 2.0 2.0 0.00 0.00 0.00 56
20260903164907 90 348 1.0 2.0 0.00 0.00 0.00 55
20260903164402 90 333 3.0 5.0 0.00 0.00 0.00 56
20260903163901 90 343 2.0 2.0 0.00 0.00 0.00 56
20260903163358 90 332 2.0 5.0 0.00 0.00 0.00 56
20260903162854 89 322 1.0 3.0 0.00 0.00 0.00 56
20260903162350 89 325 0.0 3.0 0.00 0.00 0.00 57
20260903161846 89 308 1.0 5.0 0.00 0.00 0.00 58
20260903161341 89 321 2.0 3.0 0.00 0.00 0.00 57
20260903160837 88 328 1.0 3.0 0.00 0.00 0.00 56
20260903160335 89 330 1.0 6.0 0.00 0.00 0.00 57
20260903155834 88 339 1.0 1.0 0.00 0.00 0.00 59
20260903155330 87 329 0.0 2.0 0.00 0.00 0.00 59
20260903154825 87 326 1.0 2.0 0.00 0.00 0.00 58
20260903154321 87 334 2.0 6.0 0.00 0.00 0.00 58
20260903153816 87 331 1.0 1.0 0.00 0.00 0.00 60
20260903153312 87 327 1.0 2.0 0.00 0.00 0.00 60
20260903152808 87 322 0.0 1.0 0.00 0.00 0.00 61
20260903152306 86 323 1.0 5.0 0.00 0.00 0.00 61
20260903151758 86 349 3.0 5.0 0.00 0.00 0.00 62
20260903151254 85 328 1.0 6.0 0.00 0.00 0.00 63
20260903150754 85 325 1.0 3.0 0.00 0.00 0.00 63
20260903150248 84 321 0.0 2.0 0.00 0.00 0.00 64
20260903145743 84 332 0.0 1.0 0.00 0.00 0.00 64
20260903145239 84 330 2.0 2.0 0.00 0.00 0.00 65
20260903144737 84 357 2.0 2.0 0.00 0.00 0.00 65
20260903144233 83 323 2.0 2.0 0.00 0.00 0.00 66
20260903143729 83 4 3.0 3.0 0.00 0.00 0.00 65
20260903143225 83 357 3.0 5.0 0.00 0.00 0.00 67
20260903142720 83 341 1.0 1.0 0.00 0.00 0.00 66
20260903142217 82 311 1.0 3.0 0.00 0.00 0.00 67
20260903141712 82 324 1.0 2.0 0.00 0.00 0.00 68
20260903141207 82 350 1.0 3.0 0.00 0.00 0.00 68
20260903140703 82 324 1.0 2.0 0.00 0.00 0.00 67
20260903140158 81 324 1.0 2.0 0.00 0.00 0.00 68
20260903135653 81 322 1.0 2.0 0.00 0.00 0.00 68
20260903135148 81 329 3.0 3.0 0.00 0.00 0.00 68
20260903134647 80 326 0.0 1.0 0.00 0.00 0.00 68
20260903134143 80 322 0.0 1.0 0.00 0.00 0.00 69
20260903133641 80 315 0.0 2.0 0.00 0.00 0.00 69
20260903133137 80 324 0.0 2.0 0.00 0.00 0.00 69
20260903132636 79 335 3.0 5.0 0.00 0.00 0.00 69
20260903132131 79 323 0.0 2.0 0.00 0.00 0.00 69
20260903131626 79 319 2.0 2.0 0.00 0.00 0.00 69
20260903131125 79 340 2.0 3.0 0.00 0.00 0.00 70
20260903130620 79 316 0.0 2.0 0.00 0.00 0.00 70
20260903130114 79 337 2.0 3.0 0.00 0.00 0.00 69
20260903125613 79 324 0.0 2.0 0.00 0.00 0.00 69
20260903125108 80 338 2.0 5.0 0.00 0.00 0.00 68
20260903124608 79 338 3.0 3.0 0.00 0.00 0.00 69
20260903124108 78 322 0.0 2.0 0.00 0.00 0.00 70
20260903123602 78 325 0.0 3.0 0.00 0.00 0.00 71
20260903123102 77 325 1.0 2.0 0.00 0.00 0.00 71
20260903122601 77 333 1.0 2.0 0.00 0.00 0.00 71
20260903122055 77 328 1.0 3.0 0.00 0.00 0.00 71
20260903121549 77 326 0.0 2.0 0.00 0.00 0.00 71
20260903121045 77 345 1.0 1.0 0.00 0.00 0.00 72
20260903120544 77 335 1.0 3.0 0.00 0.00 0.00 72
20260903120038 77 327 1.0 2.0 0.00 0.00 0.00 71
20260903115537 77 325 1.0 2.0 0.00 0.00 0.00 71
20260903115032 77 327 0.0 1.0 0.00 0.00 0.00 71
20260903114527 77 333 1.0 1.0 0.00 0.00 0.00 71
20260903114023 77 326 0.0 2.0 0.00 0.00 0.00 71
20260903113518 77 329 0.0 1.0 0.00 0.00 0.00 71
20260903113014 77 326 0.0 1.0 0.00 0.00 0.00 71
20260903112510 77 327 1.0 2.0 0.00 0.00 0.00 70
20260903112010 78 322 0.0 1.0 0.00 0.00 0.00 70
20260903111503 78 355 2.0 2.0 0.00 0.00 0.00 70
20260903111000 78 344 2.0 2.0 0.00 0.00 0.00 70
20260903110455 78 344 1.0 2.0 0.00 0.00 0.00 69
20260903105949 78 327 1.0 2.0 0.00 0.00 0.00 69
20260903105445 78 327 1.0 2.0 0.00 0.00 0.00 69
20260903104944 78 325 0.0 1.0 0.00 0.00 0.00 69
20260903104443 78 323 1.0 2.0 0.00 0.00 0.00 69
20260903103941 79 328 1.0 1.0 0.00 0.00 0.00 68
20260903103436 79 325 1.0 2.0 0.00 0.00 0.00 68
20260903102932 79 326 0.0 1.0 0.00 0.00 0.00 68
20260903102427 79 329 1.0 2.0 0.00 0.00 0.00 68
20260903101925 79 330 1.0 2.0 0.00 0.00 0.00 68
20260903101421 79 322 0.0 2.0 0.00 0.00 0.00 68
20260903100916 79 327 1.0 3.0 0.00 0.00 0.00 67
20260903100411 79 330 2.0 2.0 0.00 0.00 0.00 67
20260903095908 79 326 1.0 2.0 0.00 0.00 0.00 67
20260903095403 79 348 1.0 2.0 0.00 0.00 0.00 67
20260903094858 79 323 1.0 2.0 0.00 0.00 0.00 67
20260903094357 79 329 0.0 5.0 0.00 0.00 0.00 67
20260903093854 79 323 0.0 2.0 0.00 0.00 0.00 67
20260903093348 79 323 0.0 2.0 0.00 0.00 0.00 66
20260903092844 80 325 1.0 5.0 0.00 0.00 0.00 66
20260903092338 80 327 0.0 2.0 0.00 0.00 0.00 65
20260903091837 80 326 0.0 2.0 0.00 0.00 0.00 65
20260903091336 80 324 0.0 1.0 0.00 0.00 0.00 65
20260903090831 80 357 2.0 3.0 0.00 0.00 0.00 64
20260903090326 80 358 1.0 2.0 0.00 0.00 0.00 64
20260903085819 80 341 1.0 3.0 0.00 0.00 0.00 64
20260903085319 81 326 1.0 2.0 0.00 0.00 0.00 64
20260903084818 81 337 3.0 3.0 0.00 0.00 0.00 63
20260903084317 81 324 1.0 3.0 0.00 0.00 0.00 63
20260903083813 81 326 1.0 3.0 0.00 0.00 0.00 63
20260903083308 81 329 1.0 2.0 0.00 0.00 0.00 63
20260903082807 81 346 3.0 3.0 0.00 0.00 0.00 63
20260903082306 80 356 2.0 2.0 0.00 0.00 0.00 63
20260903081803 80 333 2.0 2.0 0.00 0.00 0.00 63
20260903081258 80 331 1.0 2.0 0.00 0.00 0.00 63
20260903080755 81 333 0.0 1.0 0.00 0.00 0.00 63
20260903080252 81 329 1.0 3.0 0.00 0.00 0.00 62
20260903075751 81 328 1.0 2.0 0.00 0.00 0.00 62
20260903075246 81 333 2.0 3.0 0.00 0.00 0.00 62
20260903074745 81 343 1.0 2.0 0.00 0.00 0.00 62
20260903074240 81 324 1.0 3.0 0.00 0.00 0.00 62
20260903073736 81 324 0.0 1.0 0.00 0.00 0.00 62
20260903073231 81 324 1.0 1.0 0.00 0.00 0.00 62
20260903072727 81 331 1.0 1.0 0.00 0.00 0.00 62
20260903072223 81 327 1.0 1.0 0.00 0.00 0.00 63
20260903071720 80 326 0.0 1.0 0.00 0.00 0.00 63
20260903071215 80 324 0.0 0.0 0.00 0.00 0.00 64
20260903070715 81 324 0.0 0.0 0.00 0.00 0.00 63
20260903070210 81 328 0.0 1.0 0.00 0.00 0.00 62
20260903065705 81 323 0.0 0.0 0.00 0.00 0.00 63
20260903065159 81 326 0.0 0.0 0.00 0.00 0.00 63
20260903064658 81 326 0.0 1.0 0.00 0.00 0.00 62
20260903064154 81 324 0.0 1.0 0.00 0.00 0.00 62
20260903063650 81 328 0.0 1.0 0.00 0.00 0.00 62
20260903063150 81 329 1.0 2.0 0.00 0.00 0.00 61
20260903062646 81 325 0.0 1.0 0.00 0.00 0.00 62
20260903062140 81 330 0.0 2.0 0.00 0.00 0.00 61
20260903061636 81 330 1.0 1.0 0.00 0.00 0.00 61
20260903061135 81 325 0.0 1.0 0.00 0.00 0.00 62
20260903060630 81 324 0.0 0.0 0.00 0.00 0.00 62
20260903060126 81 325 0.0 0.0 0.00 0.00 0.00 61
20260903055623 82 330 0.0 0.0 0.00 0.00 0.00 62
20260903055122 82 327 1.0 1.0 0.00 0.00 0.00 61
20260903054616 82 340 1.0 1.0 0.00 0.00 0.00 61
20260903054112 82 329 1.0 1.0 0.00 0.00 0.00 61
20260903053608 82 328 0.0 1.0 0.00 0.00 0.00 61
20260903053104 82 328 0.0 1.0 0.00 0.00 0.00 60
20260903052559 82 331 1.0 1.0 0.00 0.00 0.00 60
20260903052055 82 328 1.0 1.0 0.00 0.00 0.00 60
20260903051555 82 328 0.0 0.0 0.00 0.00 0.00 60
20260903051050 82 326 0.0 1.0 0.00 0.00 0.00 60
20260903050550 82 331 1.0 1.0 0.00 0.00 0.00 60
20260903050045 82 328 0.0 1.0 0.00 0.00 0.00 60
20260903045544 82 325 0.0 1.0 0.00 0.00 0.00 60
20260903045042 82 322 0.0 0.0 0.00 0.00 0.00 61
20260903044537 81 325 0.0 0.0 0.00 0.00 0.00 61
20260903044032 82 322 0.0 0.0 0.00 0.00 0.00 62
20260903043528 82 321 0.0 0.0 0.00 0.00 0.00 61
20260903043027 82 326 0.0 0.0 0.00 0.00 0.00 61
20260903042522 83 324 0.0 0.0 0.00 0.00 0.00 60
20260903042018 83 321 0.0 0.0 0.00 0.00 0.00 59
20260903041515 84 325 0.0 0.0 0.00 0.00 0.00 59
20260903041009 84 328 0.0 1.0 0.00 0.00 0.00 57
20260903040508 84 326 1.0 1.0 0.00 0.00 0.00 57
20260903040008 84 324 0.0 0.0 0.00 0.00 0.00 57
20260903035500 84 324 0.0 0.0 0.00 0.00 0.00 57
20260903034955 85 318 0.0 0.0 0.00 0.00 0.00 57
20260903034450 85 324 0.0 1.0 0.00 0.00 0.00 56
20260903033950 85 338 0.0 1.0 0.00 0.00 0.00 56
20260903033445 85 324 0.0 0.0 0.00 0.00 0.00 57
20260903032940 85 331 1.0 1.0 0.00 0.00 0.00 55
20260903032436 85 325 0.0 2.0 0.00 0.00 0.00 55
20260903031931 86 326 0.0 1.0 0.00 0.00 0.00 55
20260903031425 86 326 0.0 1.0 0.00 0.00 0.00 55
20260903030920 86 326 1.0 1.0 0.00 0.00 0.00 55
20260903030416 86 318 0.0 1.0 0.00 0.00 0.00 56
20260903025912 86 324 0.0 1.0 0.00 0.00 0.00 55
20260903025407 86 320 0.0 1.0 0.00 0.00 0.00 57
20260903024902 86 324 0.0 1.0 0.00 0.00 0.00 56
20260903024356 85 329 1.0 1.0 0.00 0.00 0.00 55